Location: Corralito
(10.2667°N, 66.9500°W)
Time: 10:37:56
(UTC+00:00)

GPS 2-15 Rocket1 - Pass Details

Date: 09 December 2023
Orbit: 617 x 666 km, 19.8° (Epoch: 02 March)

Event Time Altitude Azimuth Distance (km) Brightness Sun altitude
Exits shadow 08:25:36 30° 68° (ENE) 1,101 4.6 -30.2°
Drops below altitude 10° 08:28:16 10° 88° (E) 1,986 6.4 -29.6°
Sets 08:30:43 0° 94° (E) 2,900 7.6 -29.0°
